When you browse on this site, cookies collect data to enhance your experience and personalize the content and advertising you see.
Visit our Privacy Policy to learn more. By continuing to use the site, you agree to this use of cookies and data.
  • In United Kingdom
  • List of Countries
  • For 7 days
  • Water Temperature
  • Satellite Maps
  • Weather Map
  • Weather Widgets
  • user-avatar
    Login

    Hourly Weather Aberystwyth

    Today, 15 December, Saturday

    Time Temperature Precipitation Wind Pressure Humidity
    00:00 -1°C° 0 mm 11 mps 753 mmHg 78%
    01:00 -1°C° 0.2 mm 11 mps 752 mmHg 80%
    02:00 -1°C° 0.2 mm 11 mps 751 mmHg 81%
    03:00 -1°C° 0.2 mm 11 mps 750 mmHg 83%
    04:00 -1°C° 0.3 mm 12 mps 750 mmHg 84%
    05:00 -1°C° 0.3 mm 12 mps 749 mmHg 85%
    06:00 -1°C° 0 mm 14 mps 748 mmHg 84%
    07:00 -1°C° 0.5 mm 14 mps 747 mmHg 85%
    08:00 0°C° 0.5 mm 13 mps 746 mmHg 86%
    09:00 0°C° 0.5 mm 13 mps 746 mmHg 87%
    10:00 +1°C° 1.2 mm 13 mps 744 mmHg 88%
    11:00 +1°C° 1.2 mm 13 mps 743 mmHg 88%
    12:00 0°C° 0 mm 14 mps 742 mmHg 88%
    13:00 +1°C° 2.4 mm 14 mps 740 mmHg 89%
    14:00 +4°C° 2.4 mm 14 mps 739 mmHg 90%
    15:00 +5°C° 2.4 mm 14 mps 737 mmHg 91%
    16:00 +5°C° 0.3 mm 14 mps 736 mmHg 89%
    17:00 +7°C° 0.3 mm 13 mps 735 mmHg 86%
    18:00 +7°C° 0.3 mm 12 mps 735 mmHg 84%
    19:00 +7°C° 0.3 mm 13 mps 736 mmHg 83%
    20:00 +5°C° 0.3 mm 13 mps 737 mmHg 82%
    21:00 +4°C° 0.3 mm 13 mps 738 mmHg 81%
    22:00 +4°C° 0.2 mm 11 mps 739 mmHg 81%
    23:00 +5°C° 0.2 mm 10 mps 740 mmHg 81%

    Tomorrow, 16 December, Sunday

    Time Temperature Precipitation Wind Pressure Humidity
    00:00 +4°C° 0.2 mm 8 mps 741 mmHg 81%
    01:00 +4°C° 0.1 mm 8 mps 742 mmHg 83%
    02:00 +4°C° 0.1 mm 7 mps 743 mmHg 84%
    03:00 +4°C° 0.1 mm 6 mps 743 mmHg 86%
    04:00 +3°C° 0.1 mm 6 mps 743 mmHg 86%
    05:00 +3°C° 0.1 mm 5 mps 743 mmHg 87%
    06:00 +3°C° 0.1 mm 5 mps 744 mmHg 88%
    07:00 +3°C° 0.1 mm 5 mps 744 mmHg 88%
    08:00 +3°C° 0.1 mm 5 mps 744 mmHg 89%
    09:00 +4°C° 0.1 mm 4 mps 744 mmHg 90%
    10:00 +5°C° 0.2 mm 5 mps 744 mmHg 88%
    11:00 +6°C° 0.2 mm 5 mps 744 mmHg 86%
    12:00 +7°C° 0.2 mm 5 mps 744 mmHg 84%
    13:00 +6°C° 0.5 mm 5 mps 744 mmHg 85%
    14:00 +6°C° 0.5 mm 5 mps 744 mmHg 86%
    15:00 +6°C° 0.5 mm 4 mps 744 mmHg 87%
    16:00 +5°C° 0.2 mm 4 mps 745 mmHg 88%
    17:00 +5°C° 0.2 mm 4 mps 745 mmHg 90%
    18:00 +4°C° 0.2 mm 4 mps 746 mmHg 91%
    19:00 +4°C° 0.1 mm 4 mps 746 mmHg 90%
    20:00 +4°C° 0.1 mm 4 mps 747 mmHg 89%
    21:00 +4°C° 0.1 mm 4 mps 748 mmHg 89%
    22:00 +4°C° 0.1 mm 4 mps 748 mmHg 89%
    23:00 +4°C° 0.1 mm 4 mps 749 mmHg 89%

    Day after tomorrow, 17 December, Monday

    Time Temperature Precipitation Wind Pressure Humidity
    00:00 +3°C° 0.1 mm 5 mps 749 mmHg 89%
    01:00 +4°C° 0.1 mm 4 mps 750 mmHg 89%
    02:00 +4°C° 0.1 mm 4 mps 750 mmHg 89%
    03:00 +4°C° 0.1 mm 4 mps 750 mmHg 88%
    04:00 +4°C° 0 mm 4 mps 751 mmHg 89%
    05:00 +4°C° 0 mm 4 mps 751 mmHg 89%
    06:00 +4°C° 0 mm 4 mps 751 mmHg 90%
    07:00 +3°C° 0 mm 5 mps 751 mmHg 90%
    08:00 +3°C° 0 mm 5 mps 751 mmHg 90%
    09:00 +5°C° 0 mm 5 mps 752 mmHg 90%
    10:00 +5°C° 0 mm 6 mps 752 mmHg 88%
    11:00 +6°C° 0 mm 7 mps 751 mmHg 87%
    12:00 +7°C° 0 mm 8 mps 751 mmHg 85%
    13:00 +7°C° 0.3 mm 9 mps 751 mmHg 86%
    14:00 +7°C° 0.3 mm 9 mps 750 mmHg 88%
    15:00 +8°C° 0.3 mm 10 mps 750 mmHg 89%
    16:00 +8°C° 0.3 mm 10 mps 750 mmHg 89%
    17:00 +8°C° 0.3 mm 10 mps 750 mmHg 89%
    18:00 +8°C° 0.3 mm 10 mps 749 mmHg 89%
    19:00 +8°C° 0.1 mm 10 mps 749 mmHg 89%
    20:00 +8°C° 0.1 mm 11 mps 749 mmHg 88%
    21:00 +9°C° 0.1 mm 11 mps 749 mmHg 88%
    22:00 +9°C° 0.2 mm 11 mps 749 mmHg 88%
    23:00 +9°C° 0.2 mm 11 mps 748 mmHg 87%

    18 December, Tuesday

    Time Temperature Precipitation Wind Pressure Humidity
    00:00 +9°C° 0.2 mm 12 mps 748 mmHg 87%
    01:00 +9°C° 0.1 mm 12 mps 747 mmHg 86%
    02:00 +9°C° 0.1 mm 12 mps 747 mmHg 86%
    03:00 +9°C° 0.1 mm 13 mps 746 mmHg 85%
    04:00 +8°C° 0.1 mm 13 mps 745 mmHg 84%
    05:00 +8°C° 0.1 mm 13 mps 744 mmHg 83%
    06:00 +8°C° 0.1 mm 13 mps 743 mmHg 81%
    07:00 +8°C° 0.3 mm 14 mps 743 mmHg 81%
    08:00 +6°C° 0.3 mm 14 mps 742 mmHg 81%
    09:00 +6°C° 0.3 mm 15 mps 741 mmHg 81%
    10:00 +6°C° 1.2 mm 15 mps 740 mmHg 82%
    11:00 +6°C° 1.2 mm 15 mps 740 mmHg 83%
    12:00 +6°C° 1.2 mm 15 mps 739 mmHg 85%
    13:00 +7°C° 1.9 mm 13 mps 739 mmHg 86%
    14:00 +7°C° 1.9 mm 12 mps 738 mmHg 88%
    15:00 +8°C° 1.9 mm 11 mps 738 mmHg 89%
    16:00 +7°C° 2.3 mm 9 mps 738 mmHg 91%
    17:00 +7°C° 2.3 mm 8 mps 738 mmHg 92%
    18:00 +7°C° 2.3 mm 6 mps 738 mmHg 94%
    19:00 +7°C° 0.8 mm 6 mps 739 mmHg 91%
    20:00 +5°C° 0.8 mm 6 mps 740 mmHg 88%
    21:00 +5°C° 0.8 mm 6 mps 741 mmHg 85%
    22:00 +5°C° 0.1 mm 6 mps 741 mmHg 86%
    23:00 +5°C° 0.1 mm 6 mps 742 mmHg 86%

    19 December, Wednesday

    Time Temperature Precipitation Wind Pressure Humidity
    00:00 +5°C° 0.1 mm 7 mps 743 mmHg 86%
    01:00 +5°C° 0.2 mm 6 mps 743 mmHg 87%
    02:00 +4°C° 0.2 mm 6 mps 743 mmHg 87%
    03:00 +5°C° 0.2 mm 5 mps 744 mmHg 88%
    04:00 +5°C° 0.2 mm 5 mps 744 mmHg 88%
    05:00 +5°C° 0.2 mm 5 mps 744 mmHg 88%
    06:00 +3°C° 0.2 mm 5 mps 745 mmHg 88%
    07:00 +3°C° 0.1 mm 5 mps 745 mmHg 88%
    08:00 +3°C° 0.1 mm 5 mps 746 mmHg 87%
    09:00 +3°C° 0.1 mm 5 mps 746 mmHg 87%
    10:00 +4°C° 0.2 mm 6 mps 746 mmHg 84%
    11:00 +5°C° 0.2 mm 6 mps 746 mmHg 81%
    12:00 +6°C° 0.2 mm 7 mps 746 mmHg 78%
    13:00 +6°C° 0.3 mm 7 mps 746 mmHg 79%
    14:00 +5°C° 0.3 mm 6 mps 746 mmHg 80%
    15:00 +5°C° 0.3 mm 6 mps 746 mmHg 81%
    16:00 +5°C° 0.3 mm 6 mps 747 mmHg 83%
    17:00 +4°C° 0.3 mm 6 mps 747 mmHg 85%
    18:00 +4°C° 0.3 mm 6 mps 747 mmHg 86%
    19:00 +4°C° 0.1 mm 6 mps 747 mmHg 87%
    20:00 +4°C° 0.1 mm 6 mps 747 mmHg 87%
    21:00 +3°C° 0.1 mm 6 mps 747 mmHg 87%
    22:00 +4°C° 0.3 mm 6 mps 748 mmHg 88%
    23:00 +4°C° 0.3 mm 7 mps 748 mmHg 88%

    20 December, Thursday

    Time Temperature Precipitation Wind Pressure Humidity
    00:00 +4°C° 0.3 mm 7 mps 748 mmHg 88%
    01:00 +4°C° 0.7 mm 7 mps 748 mmHg 88%
    02:00 +4°C° 0.7 mm 7 mps 748 mmHg 88%
    03:00 +5°C° 0.7 mm 7 mps 748 mmHg 89%
    04:00 +5°C° 0.4 mm 7 mps 749 mmHg 88%
    05:00 +4°C° 0.4 mm 6 mps 749 mmHg 88%
    06:00 +4°C° 0.4 mm 6 mps 749 mmHg 88%
    07:00 +4°C° 0 mm 6 mps 750 mmHg 88%
    08:00 +5°C° 0 mm 5 mps 750 mmHg 89%
    09:00 +5°C° 0 mm 5 mps 751 mmHg 89%
    10:00 +6°C° 0 mm 5 mps 751 mmHg 87%
    11:00 +5°C° 0 mm 6 mps 751 mmHg 84%
    12:00 +7°C° 0 mm 6 mps 751 mmHg 81%
    13:00 +7°C° 0.1 mm 6 mps 751 mmHg 82%
    14:00 +7°C° 0.1 mm 6 mps 751 mmHg 83%
    15:00 +7°C° 0.1 mm 5 mps 751 mmHg 84%
    16:00 +5°C° 0.1 mm 6 mps 751 mmHg 86%
    17:00 +5°C° 0.1 mm 6 mps 750 mmHg 88%
    18:00 +5°C° 0.1 mm 6 mps 750 mmHg 89%
    19:00 +6°C° 0.7 mm 8 mps 748 mmHg 90%
    20:00 +6°C° 0.7 mm 9 mps 747 mmHg 91%
    21:00 +7°C° 0.7 mm 10 mps 746 mmHg 92%
    22:00 +8°C° 2.6 mm 10 mps 745 mmHg 92%
    23:00 +9°C° 2.6 mm 10 mps 744 mmHg 93%
    Show more